Location: Knowlton
(51.2333°N, 1.2667°E)
Time: 09:06:37
(UTC+00:00)

Spot 2 Rocket - Pass Details

Date: 18 April 2021
Orbit: 756 x 773 km, 98.5° (Epoch: 16 May)

Event Time Altitude Azimuth Distance (km) Brightness Sun altitude
Exits shadow 21:21:42 28° 183° (S) 1,424 4.5 -19.4°
Maximum altitude 21:24:24 65° 257° (WSW) 847 3.8 -19.7°
Drops below altitude 10° 21:29:28 10° 340° (NNW) 2,313 7.0 -20.2°
Sets 21:31:48 0° 343° (NNW) 3,242 8.0 -20.4°
